ATHENA-FIDUS

Last updated on Thu Nov 21 2024 00:02:42 GMT+0000 (Coordinated Universal Time)

1 39509U 14006B 24325.23129104 .00000155 00000+0 00000+0 0 9994 2 39509 0.0078 331.3002 0001476 279.6824 289.8283 1.00272468 39328
UTC large
Height (km)
Speed (km/s)
/
Latitude / Longitude
Inclination (degrees)
Orbital Period (minutes)
Azimuth
Elevation
Range (km)
Doppler Factor

Next 0 passes for location: London (51.5072 / 0.1276)

Sorry there are no passes over London.